Jennings, LA

8:52 PM CDT on June 24, 2017 (GMT -0500)
Jennings

Weather History for K3R7 - March, 2013

Change the Weather History Date:

Monday, March 25, 2013

  Actual Average (KCWF) Record (KCWF)
Temperature  
Mean Temperature 48 °F -  
Max Temperature 59 °F 69 °F 82 °F (2005)
Min Temperature 36 °F 55 °F 35 °F (2006)
Degree Days  
Heating Degree Days 18    
Moisture  
Dew Point 27 °F    
Average Humidity 49    
Maximum Humidity 78    
Minimum Humidity 23    
Precipitation  
Precipitation 0.00 in - - ()
Sea Level Pressure  
Sea Level Pressure 30.21 in    
Wind  
Wind Speed 11 mph (NNW)    
Max Wind Speed 20 mph    
Max Gust Speed 26 mph    
Visibility 10 miles    
Events      
Averages and records for this station are not official NWS values.
T = Trace of Precipitation, MM = Missing Value Source: NWS Daily Summary

Daily Weather History Graph

Daily Weather History Graph

Search for Another Location

Airport or City:

Trip Planner

Search our weather history database for the weather conditions in past years. The results will help you decide how hot, cold, wet, or windy it might be!

Date:

Astronomy

Mar. 25, 2013 Rise Set
Actual Time 7:08 AM CDT 7:25 PM CDT
Civil Twilight 6:44 AM CDT 7:49 PM CDT
Nautical Twilight 6:16 AM CDT 8:17 PM CDT
Astronomical Twilight 5:47 AM CDT 8:45 PM CDT
Moon 6:01 PM CDT 5:45 AM CDT
Length of Visible Light 13h 05m
Length of Day
12h 17m
Waxing Gibbous, 96% of the Moon is Illuminated
Mar 25
Waxing Gibbous
Mar 27
Full
Apr 2
Last Quarter
Apr 10
New
Apr 18
First Quarter

Hourly Weather History & Observations

Time (CDT) Temp. Windchill Dew Point Humidity Pressure Visibility Wind Dir Wind Speed Gust Speed Precip Events Conditions
12:15 AM 45.0 °F 40.1 °F 32.9 °F 63% 30.10 in 10.0 mi North 9.2 mph - N/A   Clear
12:35 AM 44.8 °F 38.7 °F 32.2 °F 61% 30.11 in 10.0 mi North 12.7 mph 17.3 mph N/A   Clear
12:55 AM 44.2 °F 39.2 °F 32.2 °F 63% 30.12 in 10.0 mi North 9.2 mph - N/A   Clear
1:15 AM 43.9 °F 38.8 °F 32.0 °F 63% 30.13 in 10.0 mi North 9.2 mph - N/A   Clear
1:35 AM 43.7 °F 38.6 °F 32.0 °F 63% 30.13 in 10.0 mi North 9.2 mph - N/A   Clear
1:55 AM 43.2 °F 37.9 °F 32.0 °F 65% 30.13 in 10.0 mi North 9.2 mph - N/A   Clear
2:15 AM 42.3 °F 36.8 °F 32.0 °F 67% 30.13 in 10.0 mi North 9.2 mph - N/A   Clear
2:35 AM 41.5 °F 36.4 °F 32.2 °F 69% 30.13 in 10.0 mi North 8.1 mph - N/A   Clear
2:55 AM 41.2 °F 35.5 °F 32.2 °F 70% 30.13 in 10.0 mi North 9.2 mph - N/A   Clear
3:15 AM 41.0 °F 35.8 °F 32.4 °F 71% 30.13 in 10.0 mi NNW 8.1 mph - N/A   Clear
3:35 AM 41.2 °F 35.5 °F 32.0 °F 70% 30.12 in 10.0 mi North 9.2 mph - N/A   Clear
3:55 AM 40.5 °F 35.1 °F 32.0 °F 72% 30.13 in 10.0 mi North 8.1 mph - N/A   Clear
4:15 AM 40.1 °F 34.7 °F 32.0 °F 73% 30.13 in 10.0 mi North 8.1 mph - N/A   Clear
4:35 AM 40.1 °F 34.1 °F 32.0 °F 73% 30.14 in 10.0 mi North 9.2 mph - N/A   Clear
4:55 AM 39.2 °F 35.0 °F 32.0 °F 75% 30.14 in 10.0 mi North 5.8 mph - N/A   Clear
5:15 AM 38.7 °F 32.9 °F 32.0 °F 77% 30.15 in 10.0 mi North 8.1 mph - N/A   Clear
5:35 AM 38.5 °F 32.1 °F 31.6 °F 76% 30.15 in 10.0 mi North 9.2 mph - N/A   Clear
5:55 AM 38.1 °F 32.3 °F 31.8 °F 78% 30.16 in 10.0 mi North 8.1 mph - N/A   Clear
6:15 AM 37.8 °F 29.8 °F 30.6 °F 75% 30.18 in 10.0 mi North 12.7 mph 18.4 mph N/A   Clear
6:35 AM 37.6 °F 28.8 °F 29.1 °F 72% 30.18 in 10.0 mi North 15.0 mph 18.4 mph N/A   Clear
6:55 AM 37.4 °F 28.9 °F 28.6 °F 70% 30.19 in 10.0 mi North 13.8 mph 18.4 mph N/A   Clear
7:15 AM 36.9 °F 29.1 °F 28.9 °F 73% 30.20 in 10.0 mi North 11.5 mph - N/A   Clear
7:35 AM 37.0 °F 28.9 °F 28.8 °F 72% 30.20 in 10.0 mi North 12.7 mph - N/A   Clear
7:55 AM 37.6 °F 30.0 °F 29.1 °F 72% 30.21 in 10.0 mi North 11.5 mph - N/A   Clear
8:15 AM 38.3 °F 30.5 °F 29.3 °F 70% 30.23 in 10.0 mi North 12.7 mph - N/A   Clear
8:35 AM 39.2 °F 31.6 °F 29.1 °F 67% 30.24 in 10.0 mi North 12.7 mph 18.4 mph N/A   Clear
8:55 AM 40.1 °F 31.3 °F 28.2 °F 63% 30.25 in 10.0 mi North 17.3 mph 20.7 mph N/A   Clear
9:15 AM 40.6 °F 32.7 °F 27.7 °F 60% 30.27 in 10.0 mi North 15.0 mph 19.6 mph N/A   Clear
9:35 AM 41.9 °F 34.3 °F 26.1 °F 53% 30.28 in 10.0 mi North 15.0 mph - N/A   Clear
9:55 AM 43.0 °F 36.4 °F 27.0 °F 53% 30.28 in 10.0 mi North 12.7 mph - N/A   Clear
10:15 AM 43.7 °F 39.1 °F 26.2 °F 50% 30.29 in 10.0 mi North 8.1 mph - N/A   Clear
10:35 AM 45.1 °F 39.5 °F 26.2 °F 48% 30.30 in 10.0 mi North 11.5 mph - N/A   Clear
10:55 AM 45.9 °F 41.7 °F 25.2 °F 44% 30.30 in 10.0 mi North 8.1 mph - N/A   Clear
11:15 AM 46.8 °F - 24.8 °F 42% 30.30 in 10.0 mi North 10.4 mph - N/A   Clear
11:35 AM 48.2 °F - 24.1 °F 39% 30.29 in 10.0 mi NNW 12.7 mph 18.4 mph N/A   Clear
11:55 AM 49.5 °F - 23.0 °F 35% 30.29 in 10.0 mi NNW 12.7 mph - N/A   Clear
12:15 PM 50.0 °F - 22.5 °F 34% 30.28 in 10.0 mi North 12.7 mph 18.4 mph N/A   Clear
12:35 PM 51.4 °F - 24.1 °F 34% 30.27 in 10.0 mi North 10.4 mph 20.7 mph N/A   Clear
12:55 PM 51.8 °F - 23.4 °F 33% 30.27 in 10.0 mi NNW 13.8 mph 20.7 mph N/A   Clear
1:15 PM 53.1 °F - 24.1 °F 32% 30.26 in 10.0 mi NNW 17.3 mph 20.7 mph N/A   Clear
1:35 PM 53.8 °F - 23.7 °F 31% 30.25 in 10.0 mi NNW 13.8 mph 19.6 mph N/A   Clear
1:55 PM 55.0 °F - 25.0 °F 31% 30.23 in 10.0 mi NNW 12.7 mph - N/A   Clear
2:15 PM 55.6 °F - 22.5 °F 28% 30.22 in 10.0 mi NNW 12.7 mph 21.9 mph N/A   Clear
2:35 PM 55.9 °F - 22.6 °F 28% 30.21 in 10.0 mi NNW 12.7 mph 19.6 mph N/A   Clear
2:55 PM 57.6 °F - 24.3 °F 28% 30.20 in 10.0 mi NW 13.8 mph - N/A   Clear
3:15 PM 57.7 °F - 22.1 °F 25% 30.20 in 10.0 mi WNW 13.8 mph 20.7 mph N/A   Clear
3:35 PM 57.7 °F - 20.8 °F 24% 30.19 in 10.0 mi NNW 16.1 mph 25.3 mph N/A   Clear
3:55 PM 58.3 °F - 21.4 °F 24% 30.18 in 10.0 mi NNW 16.1 mph 21.9 mph N/A   Clear
4:15 PM 58.8 °F - 22.5 °F 25% 30.18 in 10.0 mi NNW 16.1 mph 24.2 mph N/A   Clear
4:35 PM 59.2 °F - 23.2 °F 25% 30.18 in 10.0 mi NNW 16.1 mph 24.2 mph N/A   Clear
4:55 PM 58.6 °F - 21.9 °F 24% 30.18 in 10.0 mi NW 16.1 mph 23.0 mph N/A   Clear
5:15 PM 59.2 °F - 21.9 °F 24% 30.18 in 10.0 mi NNW 19.6 mph 26.5 mph N/A   Clear
5:35 PM 58.8 °F - 21.7 °F 24% 30.18 in 10.0 mi NNW 17.3 mph 23.0 mph N/A   Clear
5:55 PM 58.1 °F - 19.9 °F 23% 30.19 in 10.0 mi NNW 17.3 mph 24.2 mph N/A   Clear
6:15 PM 57.6 °F - 21.6 °F 25% 30.19 in 10.0 mi NW 12.7 mph 21.9 mph N/A   Clear
6:35 PM 57.2 °F - 22.5 °F 26% 30.20 in 10.0 mi NW 11.5 mph 16.1 mph N/A   Clear
6:55 PM 56.3 °F - 21.6 °F 26% 30.20 in 10.0 mi NW 12.7 mph - N/A   Clear
7:15 PM 54.7 °F - 23.4 °F 30% 30.20 in 10.0 mi NW 11.5 mph - N/A   Clear
7:35 PM 53.6 °F - 25.7 °F 34% 30.21 in 10.0 mi NW 10.4 mph - N/A   Clear
7:55 PM 52.7 °F - 26.2 °F 36% 30.23 in 10.0 mi NW 8.1 mph - N/A   Clear
8:15 PM 51.4 °F - 26.6 °F 38% 30.23 in 10.0 mi NW 8.1 mph - N/A   Clear
8:35 PM 50.4 °F - 27.7 °F 42% 30.25 in 10.0 mi NW 8.1 mph - N/A   Clear
8:55 PM 49.6 °F - 30.2 °F 47% 30.25 in 10.0 mi NNW 6.9 mph - N/A   Clear
9:15 PM 49.8 °F - 29.3 °F 45% 30.26 in 10.0 mi NNW 6.9 mph - N/A   Clear
9:35 PM 49.8 °F - 29.1 °F 45% 30.27 in 10.0 mi NNW 6.9 mph - N/A   Clear
9:55 PM 48.0 °F - 30.9 °F 52% 30.28 in 10.0 mi NW 5.8 mph - N/A   Clear
10:15 PM 48.4 °F - 29.1 °F 47% 30.29 in 10.0 mi NNW 9.2 mph - N/A   Clear
10:35 PM 49.1 °F - 26.8 °F 42% 30.31 in 10.0 mi NNW 11.5 mph - N/A   Clear
10:55 PM 48.6 °F - 26.2 °F 42% 30.31 in 10.0 mi NNW 9.2 mph - N/A   Clear
11:15 PM 47.3 °F - 28.0 °F 47% 30.32 in 10.0 mi NNW 8.1 mph - N/A   Clear
11:35 PM 46.4 °F 42.4 °F 27.7 °F 48% 30.32 in 10.0 mi North 8.1 mph - N/A   Clear
11:55 PM 45.5 °F 40.8 °F 27.1 °F 49% 30.32 in 10.0 mi North 9.2 mph - N/A   Clear